一网星座-0574星 (ONEWEB-0574)

导读 | 豆包AI

ONEWEB-0574是英国OneWeb公司低轨宽带卫星星座的一员,于2023年3月26日发射入轨,属于OneWeb一期组网卫星。卫星重约147.5公斤,配备Ku/Ka波段通信天线与霍尔推进器,单星通信能力约7.5Gbps,可提供最高50Mbps下载速率,为全球用户提供高速互联网接入服务,助力OneWeb完成全球低轨宽带星座组网,弥补偏远地区网络覆盖缺口。

基本信息
目录编号:
56063
目录名称:
ONEWEB-0574
国际标识:
2023-043T
轨道中心:
EARTH
卫星名称:
一网星座-0574星
卫星全名:
一网星座-0574星 (ONEWEB-0574)
卫星状态:
在轨 (已飞行1084 天)
发射日期:
2023-03-26 UTC
国别 :
英国 (GB)
星等 :
--
轨道信息
数据来源 国际轨道数据
星历时间: 2026-03-14T07:11:07+0800
7小时前
查看轨道信息
半长轴: 7555.892km
偏心率: 0.000148
轨道倾角: 87.917°
近地点辐角 93.751°
升交点赤经 262.951°
平近点角 266.380°
近地点: 1176.636km
远地点: 1178.874km
周期: 108.940分钟
每日圈数: 13.218256
详细信息
平衡模式:
三轴稳定
覆盖范围:
全球
运营商:
一网卫星公司
运营商所在国:
英国
制造商(研发单位):
一网卫星公司
制造商所在国:
英国
使用方式:
暂无
卫星简介
OneWeb卫星网络由648颗重约125公斤的微型卫星组成,运行在1200公里的轨道上。 每颗卫星都能够提供至少每秒8千兆位的吞吐量,以使用其高吞吐量的Ku频段有效载荷为家庭和移动平台提供互联网接入。该卫星仍在工作。
2D轨道图
3D轨道图
轨道高度分析图
轨道倾角分析图
轨道综合分析图
查看轨道综合分析图